| time (UTC) | temp F | wind direction | speed MPH | gust MPH | rain 1hr in | rain 24hr in | rain mn in | humidity % | barometer mb |
| 20260905184538 | 75 | 157 | 8.0 | 13.0 | 0.00 | 0.00 | 0.00 | 22 | 1005.9 |
| 20260905183031 | 75 | 157 | 3.0 | 9.0 | 0.00 | 0.00 | 0.00 | 24 | 1006.1 |
| 20260905181528 | 74 | 60 | 4.0 | 9.0 | 0.00 | 0.00 | 0.00 | 26 | 1006.2 |
| 20260905180026 | 74 | 107 | 5.0 | 10.0 | 0.00 | 0.00 | 0.00 | 25 | 1006.4 |
| 20260905174526 | 74 | 103 | 5.0 | 13.0 | 0.00 | 0.00 | 0.00 | 27 | 1006.5 |
| 20260905173022 | 73 | 101 | 5.0 | 10.0 | 0.00 | 0.00 | 0.00 | 28 | 1006.5 |
| 20260905171528 | 72 | 234 | 4.0 | 10.0 | 0.00 | 0.00 | 0.00 | 30 | 1006.4 |
| 20260905170023 | 72 | 222 | 4.0 | 8.0 | 0.00 | 0.00 | 0.00 | 30 | 1006.3 |
| 20260905164515 | 71 | 130 | 1.0 | 7.0 | 0.00 | 0.00 | 0.00 | 34 | 1006.5 |
| 20260905163013 | 70 | 178 | 3.0 | 8.0 | 0.00 | 0.00 | 0.00 | 32 | 1006.4 |
| 20260905161511 | 69 | 221 | 3.0 | 7.0 | 0.00 | 0.00 | 0.00 | 35 | 1006.4 |
| 20260905160005 | 68 | 236 | 3.0 | 7.0 | 0.00 | 0.00 | 0.00 | 35 | 1006.4 |
| 20260905154501 | 67 | 203 | 2.0 | 8.0 | 0.00 | 0.00 | 0.00 | 38 | 1006.4 |
| 20260905153058 | 66 | 195 | 4.0 | 10.0 | 0.00 | 0.00 | 0.00 | 38 | 1006.4 |
| 20260905151556 | 65 | 197 | 5.0 | 7.0 | 0.00 | 0.00 | 0.00 | 39 | 1006.5 |
| 20260905144550 | 57 | 239 | 1.0 | 3.0 | 0.00 | 0.00 | 0.00 | 60 | 1006.6 |
| 20260905143049 | 56 | 191 | 2.0 | 4.0 | 0.00 | 0.00 | 0.00 | 62 | 1006.7 |
| 20260905141544 | 58 | 191 | 1.0 | 4.0 | 0.00 | 0.00 | 0.00 | 55 | 1006.6 |
| 20260905140042 | 61 | 154 | 1.0 | 6.0 | 0.00 | 0.00 | 0.00 | 45 | 1006.6 |
| 20260905134538 | 58 | 163 | 0.0 | 6.0 | 0.00 | 0.00 | 0.00 | 51 | 1006.7 |
| 20260905133036 | 52 | 197 | 3.0 | 5.0 | 0.00 | 0.00 | 0.00 | 62 | 1006.5 |
| 20260905131537 | 52 | 197 | 1.0 | 4.0 | 0.00 | 0.00 | 0.00 | 59 | 1006.3 |
| 20260905130032 | 56 | 197 | 2.0 | 4.0 | 0.00 | 0.00 | 0.00 | 51 | 1006.1 |
| 20260905124532 | 54 | 197 | 2.0 | 4.0 | 0.00 | 0.00 | 0.00 | 54 | 1005.9 |
| 20260905123035 | 53 | 197 | 3.0 | 4.0 | 0.00 | 0.00 | 0.00 | 58 | 1005.7 |
| 20260905121535 | 52 | 197 | 2.0 | 5.0 | 0.00 | 0.00 | 0.00 | 61 | 1005.5 |
| 20260905120026 | 51 | 197 | 1.0 | 4.0 | 0.00 | 0.00 | 0.00 | 62 | 1005.4 |
| 20260905114521 | 54 | 196 | 3.0 | 7.0 | 0.00 | 0.00 | 0.00 | 57 | 1005.4 |
| 20260905113016 | 56 | 196 | 5.0 | 7.0 | 0.00 | 0.00 | 0.00 | 51 | 1005.2 |
| 20260905111519 | 60 | 171 | 4.0 | 7.0 | 0.00 | 0.00 | 0.00 | 43 | 1005.2 |
| 20260905110014 | 62 | 194 | 4.0 | 8.0 | 0.00 | 0.00 | 0.00 | 39 | 1005.2 |
| 20260905104518 | 62 | 195 | 4.0 | 9.0 | 0.00 | 0.00 | 0.00 | 39 | 1005.1 |
| 20260905103014 | 62 | 187 | 4.0 | 9.0 | 0.00 | 0.00 | 0.00 | 39 | 1005.1 |
| 20260905101511 | 63 | 165 | 4.0 | 8.0 | 0.00 | 0.00 | 0.00 | 37 | 1005.2 |
| 20260905100011 | 63 | 176 | 3.0 | 6.0 | 0.00 | 0.00 | 0.00 | 38 | 1005.1 |
| 20260905094508 | 61 | 184 | 2.0 | 6.0 | 0.00 | 0.00 | 0.00 | 41 | 1005.1 |
| 20260905093008 | 63 | 184 | 2.0 | 5.0 | 0.00 | 0.00 | 0.00 | 38 | 1005.0 |
| 20260905091507 | 63 | 184 | 2.0 | 4.0 | 0.00 | 0.00 | 0.00 | 38 | 1005.0 |
| 20260905090009 | 60 | 184 | 2.0 | 6.0 | 0.00 | 0.00 | 0.00 | 45 | 1005.0 |
| 20260905084506 | 58 | 195 | 4.0 | 6.0 | 0.00 | 0.00 | 0.00 | 50 | 1005.1 |
| 20260905083006 | 58 | 194 | 5.0 | 7.0 | 0.00 | 0.00 | 0.00 | 49 | 1004.9 |
| 20260905081504 | 59 | 210 | 5.0 | 8.0 | 0.00 | 0.00 | 0.00 | 46 | 1004.8 |
| 20260905080003 | 64 | 188 | 5.0 | 8.0 | 0.00 | 0.00 | 0.00 | 36 | 1004.7 |
| 20260905074606 | 63 | 198 | 6.0 | 10.0 | 0.00 | 0.00 | 0.00 | 38 | 1004.6 |
| 20260905073110 | 58 | 198 | 4.0 | 7.0 | 0.00 | 0.00 | 0.00 | 51 | 1004.5 |
| 20260905071559 | 58 | 188 | 3.0 | 6.0 | 0.00 | 0.00 | 0.00 | 53 | 1004.6 |
| 20260905070058 | 60 | 186 | 5.0 | 7.0 | 0.00 | 0.00 | 0.00 | 49 | 1004.5 |
| 20260905064553 | 58 | 153 | 3.0 | 6.0 | 0.00 | 0.00 | 0.00 | 48 | 1004.6 |
| 20260905063050 | 56 | 213 | 2.0 | 3.0 | 0.00 | 0.00 | 0.00 | 56 | 1004.4 |
| 20260905061601 | 56 | 213 | 0.0 | 4.0 | 0.00 | 0.00 | 0.00 | 54 | 1004.3 |
| 20260905060100 | 57 | 213 | 2.0 | 4.0 | 0.00 | 0.00 | 0.00 | 55 | 1004.2 |
| 20260905054555 | 57 | 182 | 3.0 | 5.0 | 0.00 | 0.00 | 0.00 | 54 | 1004.1 |
| 20260905053045 | 56 | 182 | 2.0 | 5.0 | 0.00 | 0.00 | 0.00 | 56 | 1004.0 |
| 20260905051602 | 55 | 186 | 1.0 | 5.0 | 0.00 | 0.00 | 0.00 | 56 | 1004.0 |
| 20260905050044 | 56 | 186 | 1.0 | 4.0 | 0.00 | 0.00 | 0.00 | 53 | 1003.9 |
| 20260905044544 | 57 | 186 | 1.0 | 7.0 | 0.00 | 0.00 | 0.00 | 54 | 1004.0 |
| 20260905043043 | 59 | 137 | 1.0 | 3.0 | 0.00 | 0.00 | 0.00 | 47 | 1004.0 |
| 20260905041542 | 64 | 136 | 2.0 | 7.0 | 0.00 | 0.00 | 0.00 | 38 | 1004.1 |
| 20260905040041 | 62 | 140 | 3.0 | 8.0 | 0.00 | 0.00 | 0.00 | 39 | 1004.2 |
| 20260905034541 | 64 | 144 | 0.0 | 5.0 | 0.00 | 0.00 | 0.00 | 38 | 1004.3 |
| 20260905033050 | 64 | 150 | 3.0 | 7.0 | 0.00 | 0.00 | 0.00 | 35 | 1004.3 |
| 20260905031545 | 62 | 140 | 2.0 | 5.0 | 0.00 | 0.00 | 0.00 | 41 | 1004.4 |
| 20260905030039 | 62 | 140 | 3.0 | 5.0 | 0.00 | 0.00 | 0.00 | 41 | 1004.4 |
| 20260905024557 | 57 | 200 | 4.0 | 5.0 | 0.00 | 0.00 | 0.00 | 52 | 1004.3 |
| 20260905023042 | 59 | 199 | 4.0 | 6.0 | 0.00 | 0.00 | 0.00 | 50 | 1004.1 |
| 20260905021539 | 60 | 200 | 5.0 | 7.0 | 0.00 | 0.00 | 0.00 | 49 | 1003.9 |
| 20260905020038 | 61 | 201 | 5.0 | 7.0 | 0.00 | 0.00 | 0.00 | 51 | 1003.6 |
| 20260905014539 | 63 | 201 | 3.0 | 7.0 | 0.00 | 0.00 | 0.00 | 45 | 1003.5 |
| 20260905013048 | 64 | 201 | 4.0 | 7.0 | 0.00 | 0.00 | 0.00 | 44 | 1003.5 |
| 20260905011536 | 67 | 201 | 3.0 | 7.0 | 0.00 | 0.00 | 0.00 | 40 | 1003.4 |
| 20260905010035 | 68 | 209 | 4.0 | 7.0 | 0.00 | 0.00 | 0.00 | 40 | 1003.3 |
| 20260905004534 | 69 | 213 | 2.0 | 5.0 | 0.00 | 0.00 | 0.00 | 33 | 1003.4 |
| 20260905003033 | 71 | 213 | 1.0 | 6.0 | 0.00 | 0.00 | 0.00 | 29 | 1003.4 |
| 20260905001533 | 75 | 235 | 2.0 | 5.0 | 0.00 | 0.00 | 0.00 | 24 | 1003.2 |
| 20260905000034 | 76 | 190 | 3.0 | 9.0 | 0.00 | 0.00 | 0.00 | 24 | 1003.1 |
| 20260904234537 | 76 | 205 | 4.0 | 8.0 | 0.00 | 0.00 | 0.00 | 22 | 1003.1 |
| 20260904233031 | 78 | 236 | 2.0 | 13.0 | 0.00 | 0.00 | 0.00 | 21 | 1003.1 |
| 20260904231531 | 78 | 291 | 2.0 | 14.0 | 0.00 | 0.00 | 0.00 | 20 | 1003.1 |
| 20260904230042 | 78 | 219 | 4.0 | 12.0 | 0.00 | 0.00 | 0.00 | 20 | 1003.1 |
| 20260904224533 | 78 | 213 | 2.0 | 9.0 | 0.00 | 0.00 | 0.00 | 21 | 1003.1 |
| 20260904223030 | 79 | 250 | 5.0 | 9.0 | 0.00 | 0.00 | 0.00 | 21 | 1003.2 |
| 20260904221527 | 78 | 240 | 3.0 | 12.0 | 0.00 | 0.00 | 0.00 | 20 | 1003.4 |
| 20260904220030 | 78 | 183 | 2.0 | 12.0 | 0.00 | 0.00 | 0.00 | 22 | 1003.5 |
| 20260904214526 | 77 | 236 | 3.0 | 14.0 | 0.00 | 0.00 | 0.00 | 20 | 1003.7 |
| 20260904213032 | 78 | 77 | 2.0 | 13.0 | 0.00 | 0.00 | 0.00 | 20 | 1003.6 |
| 20260904211524 | 78 | 263 | 2.0 | 11.0 | 0.00 | 0.00 | 0.00 | 22 | 1003.7 |
| 20260904210022 | 77 | 232 | 3.0 | 11.0 | 0.00 | 0.00 | 0.00 | 22 | 1003.7 |
| 20260904204523 | 77 | 163 | 6.0 | 14.0 | 0.00 | 0.00 | 0.00 | 22 | 1003.7 |
| 20260904203026 | 76 | 88 | 3.0 | 11.0 | 0.00 | 0.00 | 0.00 | 22 | 1003.7 |
| 20260904201533 | 75 | 150 | 8.0 | 14.0 | 0.00 | 0.00 | 0.00 | 21 | 1004.0 |
| 20260904200031 | 75 | 217 | 9.0 | 18.0 | 0.00 | 0.00 | 0.00 | 21 | 1004.1 |
| 20260904194512 | 75 | 163 | 5.0 | 20.0 | 0.00 | 0.00 | 0.00 | 23 | 1004.1 |
| 20260904193012 | 74 | 103 | 3.0 | 11.0 | 0.00 | 0.00 | 0.00 | 23 | 1004.2 |
| 20260904191513 | 74 | 119 | 8.0 | 16.0 | 0.00 | 0.00 | 0.00 | 22 | 1004.4 |
| 20260904190011 | 73 | 159 | 4.0 | 14.0 | 0.00 | 0.00 | 0.00 | 22 | 1004.6 |